TimeEDT,TemperatureF,Dew PointF,Humidity,Sea Level PressureIn,VisibilityMPH,Wind Direction,Wind SpeedMPH,Gust SpeedMPH,PrecipitationIn,Events,Conditions,WindDirDegrees,DateUTC
12:15 AM,71.6,64.4,78,30.11,10.0,ENE,5.8,-,N/A,,Overcast,70,2013-07-14 04:15:00
12:35 AM,71.6,64.4,78,30.11,10.0,ENE,6.9,-,N/A,,Mostly Cloudy,60,2013-07-14 04:35:00
12:55 AM,71.6,64.4,78,30.11,10.0,East,5.8,-,N/A,,Scattered Clouds,80,2013-07-14 04:55:00
1:15 AM,71.6,64.4,78,30.11,10.0,Calm,Calm,-,N/A,,Mostly Cloudy,0,2013-07-14 05:15:00
1:35 AM,71.6,66.2,83,30.11,10.0,ENE,3.5,-,N/A,,Mostly Cloudy,70,2013-07-14 05:35:00
1:55 AM,71.6,64.4,78,30.11,10.0,East,3.5,-,N/A,,Overcast,90,2013-07-14 05:55:00
2:15 AM,71.6,66.2,83,30.10,10.0,East,3.5,-,N/A,,Overcast,80,2013-07-14 06:15:00
2:35 AM,71.6,66.2,83,30.09,10.0,ENE,3.5,-,N/A,,Overcast,70,2013-07-14 06:35:00
2:55 AM,71.6,66.2,83,30.09,7.0,ENE,3.5,-,N/A,,Mostly Cloudy,70,2013-07-14 06:55:00
3:15 AM,71.6,68.0,88,30.09,7.0,Calm,Calm,-,N/A,,Overcast,0,2013-07-14 07:15:00
3:35 AM,71.6,68.0,88,30.09,10.0,ENE,5.8,-,N/A,,Overcast,60,2013-07-14 07:35:00
3:55 AM,71.6,66.2,83,30.09,7.0,East,4.6,-,N/A,,Mostly Cloudy,80,2013-07-14 07:55:00
4:15 AM,71.6,68.0,88,30.09,7.0,ENE,3.5,-,N/A,,Mostly Cloudy,70,2013-07-14 08:15:00
4:35 AM,69.8,68.0,94,30.09,7.0,ENE,3.5,-,N/A,,Scattered Clouds,70,2013-07-14 08:35:00
4:55 AM,71.6,68.0,88,30.10,10.0,East,5.8,-,N/A,,Scattered Clouds,80,2013-07-14 08:55:00
5:15 AM,71.6,68.0,88,30.11,7.0,East,4.6,-,N/A,,Mostly Cloudy,80,2013-07-14 09:15:00
5:35 AM,71.6,68.0,88,30.11,7.0,East,4.6,-,N/A,,Mostly Cloudy,80,2013-07-14 09:35:00
5:55 AM,71.6,68.0,88,30.12,7.0,East,4.6,-,N/A,,Mostly Cloudy,80,2013-07-14 09:55:00
6:15 AM,71.6,68.0,88,30.12,10.0,East,3.5,-,N/A,,Mostly Cloudy,80,2013-07-14 10:15:00
6:35 AM,71.6,68.0,88,30.13,10.0,East,4.6,-,N/A,,Overcast,80,2013-07-14 10:35:00
6:55 AM,71.6,68.0,88,30.14,10.0,ENE,3.5,-,N/A,,Overcast,70,2013-07-14 10:55:00
7:15 AM,71.6,68.0,88,30.15,10.0,East,3.5,-,N/A,,Overcast,80,2013-07-14 11:15:00
7:35 AM,71.6,68.0,88,30.15,10.0,ENE,5.8,-,N/A,,Overcast,70,2013-07-14 11:35:00
7:55 AM,71.6,68.0,88,30.15,10.0,East,4.6,-,N/A,,Mostly Cloudy,80,2013-07-14 11:55:00
8:15 AM,73.4,68.0,83,30.15,10.0,ENE,6.9,-,N/A,,Mostly Cloudy,70,2013-07-14 12:15:00
8:35 AM,73.4,66.2,78,30.16,10.0,ENE,6.9,-,N/A,,Overcast,70,2013-07-14 12:35:00
8:55 AM,73.4,66.2,78,30.16,10.0,East,6.9,-,N/A,,Overcast,80,2013-07-14 12:55:00
9:15 AM,75.2,66.2,73,30.17,10.0,East,6.9,-,N/A,,Mostly Cloudy,80,2013-07-14 13:15:00
9:35 AM,75.2,64.4,69,30.17,10.0,East,11.5,16.1,N/A,,Mostly Cloudy,100,2013-07-14 13:35:00
9:55 AM,75.2,64.4,69,30.17,10.0,East,9.2,-,N/A,,Mostly Cloudy,90,2013-07-14 13:55:00
10:15 AM,73.4,64.4,73,30.17,10.0,East,8.1,-,N/A,,Overcast,90,2013-07-14 14:15:00
10:35 AM,75.2,66.2,73,30.18,7.0,East,6.9,-,N/A,,Overcast,80,2013-07-14 14:35:00
10:55 AM,77.0,64.4,65,30.18,10.0,East,9.2,-,N/A,,Overcast,100,2013-07-14 14:55:00
11:15 AM,77.0,64.4,65,30.18,10.0,East,10.4,-,N/A,,Overcast,100,2013-07-14 15:15:00
11:35 AM,78.8,64.4,61,30.18,10.0,East,6.9,16.1,N/A,,Overcast,90,2013-07-14 15:35:00
11:55 AM,78.8,64.4,61,30.19,10.0,East,10.4,-,N/A,,Overcast,100,2013-07-14 15:55:00
12:15 PM,78.8,64.4,61,30.19,10.0,East,9.2,-,N/A,,Mostly Cloudy,100,2013-07-14 16:15:00
12:35 PM,80.6,64.4,58,30.19,10.0,East,6.9,-,N/A,,Mostly Cloudy,90,2013-07-14 16:35:00
12:55 PM,80.6,62.6,54,30.19,10.0,East,6.9,17.3,N/A,,Mostly Cloudy,100,2013-07-14 16:55:00
1:15 PM,80.6,62.6,54,30.19,10.0,East,6.9,16.1,N/A,,Mostly Cloudy,80,2013-07-14 17:15:00
1:35 PM,82.4,64.4,54,30.18,10.0,East,12.7,19.6,N/A,,Mostly Cloudy,80,2013-07-14 17:35:00
1:55 PM,82.4,64.4,54,30.18,10.0,East,10.4,-,N/A,,Mostly Cloudy,90,2013-07-14 17:55:00
2:15 PM,80.6,64.4,58,30.18,10.0,East,11.5,16.1,N/A,,Scattered Clouds,100,2013-07-14 18:15:00
2:35 PM,80.6,64.4,58,30.18,10.0,ENE,5.8,17.3,N/A,,Scattered Clouds,70,2013-07-14 18:35:00
2:55 PM,80.6,64.4,58,30.18,10.0,East,6.9,-,N/A,,Mostly Cloudy,80,2013-07-14 18:55:00
3:15 PM,80.6,62.6,54,30.19,10.0,East,10.4,16.1,N/A,,Mostly Cloudy,80,2013-07-14 19:15:00
3:35 PM,78.8,64.4,61,30.18,10.0,ENE,6.9,-,N/A,Rain,Light Rain,70,2013-07-14 19:35:00
3:55 PM,78.8,66.2,65,30.17,10.0,East,6.9,-,N/A,Rain,Light Rain,90,2013-07-14 19:55:00
4:15 PM,80.6,66.2,61,30.16,10.0,ENE,8.1,-,N/A,,Scattered Clouds,70,2013-07-14 20:15:00
4:35 PM,82.4,64.4,54,30.16,10.0,East,9.2,-,N/A,,Mostly Cloudy,90,2013-07-14 20:35:00
4:55 PM,80.6,66.2,61,30.15,10.0,ENE,10.4,17.3,N/A,,Mostly Cloudy,70,2013-07-14 20:55:00
5:15 PM,77.0,68.0,74,30.16,10.0,East,5.8,-,N/A,Rain,Rain,80,2013-07-14 21:15:00
5:35 PM,77.0,68.0,74,30.16,10.0,East,8.1,-,N/A,Rain,Light Rain,100,2013-07-14 21:35:00
5:55 PM,77.0,68.0,74,30.15,10.0,East,6.9,-,N/A,,Scattered Clouds,90,2013-07-14 21:55:00
6:15 PM,78.8,68.0,69,30.15,10.0,ENE,5.8,-,N/A,,Mostly Cloudy,70,2013-07-14 22:15:00
6:35 PM,75.2,68.0,78,30.16,10.0,ENE,10.4,17.3,N/A,,Overcast,70,2013-07-14 22:35:00
6:55 PM,77.0,68.0,74,30.16,10.0,ENE,6.9,-,N/A,,Overcast,70,2013-07-14 22:55:00
7:15 PM,77.0,68.0,74,30.16,10.0,East,11.5,17.3,N/A,,Overcast,80,2013-07-14 23:15:00
7:35 PM,77.0,68.0,74,30.17,10.0,ENE,5.8,-,N/A,,Overcast,70,2013-07-14 23:35:00
7:55 PM,77.0,68.0,74,30.18,10.0,ENE,4.6,-,N/A,,Overcast,70,2013-07-14 23:55:00
8:15 PM,75.2,68.0,78,30.18,10.0,East,8.1,-,N/A,Rain,Rain,80,2013-07-15 00:15:00
8:35 PM,73.4,69.8,88,30.18,10.0,East,4.6,-,N/A,,Overcast,90,2013-07-15 00:35:00
8:55 PM,73.4,68.0,83,30.20,10.0,East,9.2,-,N/A,,Mostly Cloudy,80,2013-07-15 00:55:00
9:15 PM,71.6,68.0,88,30.20,10.0,East,9.2,-,N/A,,Overcast,80,2013-07-15 01:15:00
9:35 PM,71.6,68.0,88,30.21,5.0,East,5.8,-,N/A,Rain,Rain,80,2013-07-15 01:35:00
9:55 PM,71.6,69.8,94,30.22,5.0,ENE,4.6,-,N/A,,Light Drizzle,70,2013-07-15 01:55:00
10:15 PM,71.6,69.8,94,30.23,10.0,ENE,4.6,-,N/A,,Overcast,70,2013-07-15 02:15:00
10:35 PM,71.6,69.8,94,30.24,10.0,East,6.9,-,N/A,,Mostly Cloudy,90,2013-07-15 02:35:00
10:55 PM,71.6,69.8,94,30.23,10.0,East,8.1,-,N/A,Rain,Light Rain,80,2013-07-15 02:55:00
11:15 PM,71.6,68.0,88,30.24,10.0,ENE,4.6,-,N/A,,Scattered Clouds,70,2013-07-15 03:15:00
11:35 PM,71.6,68.0,88,30.25,2.5,ESE,8.1,-,N/A,Rain,Heavy Rain,120,2013-07-15 03:35:00
11:55 PM,71.6,68.0,88,30.25,10.0,East,5.8,-,N/A,,Mostly Cloudy,80,2013-07-15 03:55:00